[[{"header":{"parameterUnit":"m.s-1","parameterCategory":1,"la1":30.2991,"la2":30.254,"lo1":-89.0895,"lo2":-89.0444,"dy":0.0017,"dx":0.0017,"nx":28,"ny":28,"refTime":"2023-10-20T21:00:00:Z","depth":0,"parameterNumber":2,"parameterNumberName":"U-component_of_WINDS"},"data":[0,0,0,0,0,0,0,0,0,0,0,0,0,0,0,0,0,0,0,0,0,0,0,0,0,0,0,0,0,0,0,0,0,0,0,0,0,0,0,0,0,0,0,0,0,0,0,0,0,0,0,0,0,0,0,0,0,0,0.2069,0.2069,0,0.2034,0.2034,0.2033,0.2,0.2,0.1999,0.1999,0.1963,0.1963,0.1962,0,0,0,0,0,0,0,0,0,0,0,0,0,0.2105,0.2105,0.2069,0.2068,0.2068,0.2034,0.2034,0.2033,0.2,0.2,0.1999,0.1999,0.1963,0.1963,0.1962,0,0,0,0,0,0,0,0,0,0,0,0,0,0.2082,0.2105,0.2069,0.2048,0.2045,0.2034,0.2034,0.2033,0.2001,0.2,0.1999,0.1999,0.1964,0.1963,0.1962,0.1969,0,0,0.1959,0.1959,0,0,0,0,0,0,0,0,0.2083,0.2081,0.2051,0.2049,0.2046,0.2021,0.2033,0.2012,0.2001,0.2018,0.1999,0.1998,0.1983,0.198,0.1975,0.1968,0.1966,0.1959,0.1959,0.1958,0.1958,0,0,0,0,0,0,0,0.2085,0.2082,0.2055,0.2051,0.2048,0.2039,0.2035,0.2029,0.2004,0.2016,0.2014,0.201,0.1982,0.1976,0.1974,0.1966,0.1959,0.1959,0.1958,0.1958,0.1961,0.1962,0,0,0,0,0,0,0.209,0.2084,0.2056,0.2054,0.2064,0.2039,0.2035,0.203,0.2004,0.2,0.201,0.2008,0.1978,0.1975,0.1973,0.198,0.1958,0.1958,0.1957,0.1961,0.1962,0.1962,0,0,0,0,0,0,0.2091,0.2088,0.2058,0.2068,0.2064,0.2039,0.2034,0.2029,0.2024,0.2,0.1995,0.201,0.1977,0.1974,0.197,0.1978,0.1957,0.1957,0.196,0.1961,0.1962,0.1995,0,0,0,0,0,0,0.2092,0.2088,0.2092,0.2068,0.2063,0.2057,0.2034,0.2029,0.2023,0.202,0.1998,0.1994,0.1977,0.1972,0.197,0.1977,0.1956,0.1959,0.1961,0.1962,0.1993,0.1997,0.2,0,0,0,0,0,0.2094,0.2102,0.2092,0.2089,0.2067,0.2057,0.2054,0.2034,0.2024,0.2026,0.201,0.1995,0.1977,0.1972,0.1969,0.1976,0.1959,0.196,0.1962,0.1991,0.1996,0.2,0,0,0,0,0,0,0.2127,0.2099,0.2087,0.2089,0.2075,0.2051,0.2055,0.204,0.2029,0.2027,0.2002,0.1998,0.1997,0.1986,0.198,0.1981,0.1966,0.1967,0.1989,0.1994,0.1997,0.2001,0.1955,0,0,0,0,0,0.2135,0.213,0.2105,0.2108,0.2102,0.208,0.2075,0.206,0.2046,0.204,0.2024,0.201,0.2001,0.1996,0.1987,0.199,0.1985,0.1993,0.1997,0.2,0.2002,0.2002,0.2006,0.1967,0.1967,0.1967,0,0,0.2151,0.2134,0.2133,0.2115,0.2103,0.2098,0.2075,0.2071,0.2067,0.2039,0.2035,0.2022,0.2005,0.2005,0.2004,0.1996,0.2011,0.2002,0.2004,0.2004,0.2004,0.2008,0.2011,0.1968,0.1968,0.1967,0,0,0.2177,0.2164,0.2166,0.2154,0.2136,0.2121,0.2121,0.2098,0.2089,0.2084,0.2063,0.2057,0.2043,0.2032,0.2024,0.2044,0.203,0.2042,0.2061,0.2062,0.2065,0.2068,0.2076,0.2079,0.2043,0.2043,0.2043,0,0.22,0.2192,0.2169,0.2166,0.2159,0.2132,0.2133,0.2123,0.2103,0.2098,0.2089,0.207,0.2056,0.2053,0.2058,0.2052,0.2052,0.2045,0.2066,0.2069,0.2071,0.2079,0.2081,0.2045,0.2045,0.2044,0.2044,0,0.222,0.2215,0.2218,0.2199,0.2192,0.2191,0.2168,0.2163,0.2148,0.2133,0.2128,0.2111,0.2097,0.2095,0.2081,0.2089,0.2085,0.2071,0.2055,0.2077,0.2084,0.2086,0.2047,0.2047,0.2046,0.2046,0,0,0.2271,0.2237,0.2239,0.223,0.2207,0.2202,0.2199,0.2186,0.2183,0.2169,0.2166,0.2154,0.2141,0.2132,0.2116,0.2116,0.2134,0.2102,0.2101,0.211,0.2143,0.2155,0.2159,0.2123,0.2123,0.2123,0.2145,0,0.2295,0.2289,0.2268,0.2268,0.2263,0.2236,0.2234,0.2219,0.2204,0.2197,0.218,0.2173,0.2155,0.215,0.2149,0.2132,0.2141,0.213,0.2121,0.2121,0.2128,0.2162,0.2175,0.2197,0.2147,0.2148,0.2148,0,0.2324,0.2311,0.2312,0.2288,0.2285,0.2283,0.2269,0.2262,0.2244,0.2233,0.2223,0.2204,0.2199,0.2183,0.2176,0.2169,0.2163,0.2154,0.2154,0.2155,0.2138,0.2165,0.2203,0.2207,0.2152,0.2151,0.2151,0,0.2362,0.2345,0.2343,0.2336,0.2308,0.2308,0.2296,0.2277,0.227,0.2257,0.2252,0.2238,0.2232,0.2221,0.2199,0.2189,0.2195,0.2176,0.2186,0.2187,0.2191,0.2191,0.223,0.2184,0.2183,0.2183,0.2183,0,0.2393,0.2395,0.236,0.236,0.236,0.2334,0.2335,0.232,0.2304,0.2299,0.2274,0.227,0.2241,0.2233,0.2215,0.2213,0.2209,0.22,0.2196,0.2204,0.2205,0.2202,0.2201,0.2184,0.2184,0.2184,0.2184,0,0.2438,0.2415,0.2411,0.2384,0.2377,0.2379,0.2356,0.2353,0.2336,0.233,0.2327,0.23,0.229,0.2266,0.2249,0.2237,0.224,0.223,0.2246,0.2244,0.2256,0.2256,0.2296,0.23,0.2249,0.2249,0.225,0,0.2461,0.2462,0.2434,0.2429,0.2418,0.2411,0.2403,0.2376,0.2369,0.2348,0.2348,0.2336,0.2325,0.2309,0.2288,0.2275,0.2266,0.2281,0.2264,0.2272,0.2269,0.227,0.227,0.2286,0.2286,0.2287,0.2287,0,0.2504,0.2492,0.2483,0.2468,0.246,0.2448,0.2434,0.2431,0.24,0.2394,0.2383,0.2374,0.2356,0.2344,0.2327,0.2315,0.2296,0.2292,0.2294,0.2304,0.2314,0.231,0.2259,0.2292,0.2292,0.2291,0.2291,0.2291,0.254,0.254,0.252,0.2509,0.2496,0.2483,0.2479,0.2461,0.2451,0.2435,0.2419,0.241,0.239,0.2365,0.2353,0.2345,0.2336,0.2339,0.234,0.2341,0.2345,0.2312,0.2342,0.2342,0.2342,0.2341,0.2341,0,0.2584,0.2569,0.256,0.2541,0.2533,0.2514,0.2497,0.2492,0.2484,0.2467,0.2456,0.2443,0.243,0.2407,0.2393,0.2391,0.2382,0.2388,0.2389,0.2387,0.2354,0.2354,0.2395,0.2395,0.2395,0.2395,0.2395,0.2395,0.2606,0.2604,0.2589,0.258,0.2564,0.2555,0.2547,0.2535,0.2521,0.2508,0.2497,0.2482,0.2462,0.2446,0.2433,0.2427,0.2423,0.2433,0.2424,0.2394,0.2389,0.2384,0.2385,0.2432,0.2432,0.2457,0.2458,0.2458]},{"header":{"parameterUnit":"m.s-1","parameterCategory":1,"la1":30.2991,"la2":30.254,"lo1":-89.0895,"lo2":-89.0444,"dy":0.0017,"dx":0.0017,"nx":28,"ny":28,"refTime":"2023-10-20T21:00:00:Z","depth":0,"parameterNumber":3,"parameterNumberName":"V-component_of_WINDS"},"data":[0,0,0,0,0,0,0,0,0,0,0,0,0,0,0,0,0,0,0,0,0,0,0,0,0,0,0,0,0,0,0,0,0,0,0,0,0,0,0,0,0,0,0,0,0,0,0,0,0,0,0,0,0,0,0,0,0,0,0.1658,0.1658,0,0.1635,0.1635,0.1634,0.1608,0.1608,0.1608,0.1607,0.1581,0.1581,0.1581,0,0,0,0,0,0,0,0,0,0,0,0,0,0.168,0.1679,0.1658,0.1658,0.1658,0.1635,0.1635,0.1634,0.1608,0.1608,0.1607,0.1607,0.1581,0.1581,0.1581,0,0,0,0,0,0,0,0,0,0,0,0,0,0.1665,0.1679,0.1659,0.1642,0.1641,0.1635,0.1635,0.1634,0.1608,0.1608,0.1607,0.1607,0.1582,0.1581,0.1581,0.1589,0,0,0.1579,0.1579,0,0,0,0,0,0,0,0,0.1666,0.1664,0.1645,0.1643,0.1641,0.1624,0.1633,0.1619,0.1609,0.1621,0.1607,0.1607,0.1596,0.1594,0.1591,0.1587,0.1586,0.1579,0.1579,0.1578,0.1578,0,0,0,0,0,0,0,0.1667,0.1665,0.1649,0.1645,0.1643,0.1636,0.1633,0.163,0.1612,0.1619,0.1618,0.1615,0.1595,0.1591,0.159,0.1586,0.1579,0.1579,0.1578,0.1578,0.1588,0.1588,0,0,0,0,0,0,0.167,0.1666,0.165,0.1648,0.1652,0.1636,0.1633,0.163,0.1612,0.1608,0.1616,0.1614,0.1593,0.1591,0.1589,0.1598,0.1578,0.1578,0.1578,0.1587,0.1588,0.1589,0,0,0,0,0,0,0.1671,0.1669,0.1651,0.1657,0.1654,0.1636,0.1633,0.163,0.1627,0.1609,0.1605,0.1616,0.1592,0.159,0.1589,0.1596,0.1578,0.1577,0.1587,0.1587,0.1588,0.1614,0,0,0,0,0,0,0.1672,0.167,0.1673,0.1657,0.1654,0.1652,0.1634,0.163,0.1626,0.1624,0.1608,0.1605,0.1591,0.159,0.1589,0.1595,0.1577,0.1586,0.1587,0.1588,0.1613,0.1616,0.1619,0,0,0,0,0,0.1673,0.1681,0.1673,0.1671,0.1657,0.1652,0.165,0.1635,0.1627,0.163,0.1618,0.1605,0.1596,0.159,0.1588,0.1595,0.1585,0.1587,0.1588,0.1611,0.1615,0.1619,0,0,0,0,0,0,0.1698,0.1678,0.167,0.1673,0.1665,0.1648,0.1651,0.164,0.1633,0.1631,0.1613,0.1609,0.1611,0.1602,0.1597,0.1602,0.1589,0.159,0.1607,0.1611,0.1614,0.1616,0.1576,0,0,0,0,0,0.1704,0.1702,0.1685,0.1689,0.1685,0.1669,0.1666,0.1656,0.1646,0.1642,0.163,0.1621,0.1616,0.1613,0.1607,0.1611,0.1607,0.1615,0.1618,0.162,0.1622,0.1623,0.1627,0.1593,0.1593,0.1593,0,0,0.1716,0.1705,0.1705,0.1694,0.1686,0.1684,0.1666,0.1665,0.1663,0.1641,0.164,0.1632,0.162,0.1622,0.1622,0.1615,0.163,0.1622,0.1624,0.1624,0.1625,0.1628,0.1631,0.1594,0.1593,0.1593,0,0,0.1737,0.1729,0.1732,0.1725,0.1713,0.1702,0.1703,0.1688,0.1681,0.168,0.1664,0.1661,0.1652,0.1645,0.164,0.1658,0.1646,0.1657,0.1672,0.1674,0.1677,0.1679,0.1686,0.1689,0.1658,0.1658,0.1658,0,0.1754,0.1751,0.1735,0.1735,0.173,0.1711,0.1714,0.1707,0.1694,0.1691,0.1684,0.1673,0.1663,0.1663,0.1668,0.1664,0.1665,0.1659,0.1678,0.168,0.1682,0.1688,0.1691,0.1659,0.1659,0.1659,0.1659,0,0.1772,0.177,0.1773,0.1762,0.1758,0.1759,0.1743,0.1741,0.1731,0.172,0.1719,0.1707,0.1699,0.1698,0.1687,0.1696,0.1692,0.1682,0.1668,0.1687,0.1693,0.1695,0.1661,0.1661,0.166,0.166,0,0,0.1809,0.1789,0.179,0.1785,0.1771,0.1769,0.1769,0.1761,0.176,0.1751,0.1751,0.1744,0.1734,0.1728,0.1717,0.1718,0.1734,0.1707,0.1707,0.1713,0.1743,0.1752,0.1755,0.1726,0.1726,0.1726,0.1745,0,0.1828,0.1828,0.1814,0.1817,0.1815,0.1797,0.1797,0.1788,0.1778,0.1775,0.1764,0.1759,0.1746,0.1743,0.1744,0.1732,0.174,0.173,0.1725,0.1725,0.1729,0.1758,0.1767,0.1785,0.1747,0.1747,0.1747,0,0.1851,0.1844,0.1848,0.1834,0.1832,0.1833,0.1825,0.1821,0.1811,0.1803,0.1797,0.1784,0.1783,0.177,0.1768,0.1761,0.1758,0.1752,0.1752,0.1752,0.1738,0.1759,0.179,0.1793,0.175,0.175,0.175,0,0.1878,0.187,0.1871,0.1867,0.185,0.1851,0.1844,0.1833,0.1829,0.1822,0.1819,0.1811,0.1807,0.1801,0.1786,0.1778,0.1786,0.1771,0.178,0.178,0.1783,0.1783,0.1815,0.178,0.178,0.178,0.178,0,0.1901,0.1904,0.1883,0.1884,0.1887,0.187,0.1873,0.1864,0.1854,0.1853,0.1836,0.1835,0.1815,0.1811,0.1799,0.1799,0.1797,0.1791,0.1788,0.1793,0.1794,0.1791,0.179,0.178,0.178,0.178,0.178,0,0.1932,0.1918,0.1919,0.1903,0.1899,0.1902,0.1888,0.1888,0.1877,0.1875,0.1874,0.1857,0.1852,0.1836,0.1827,0.1818,0.1822,0.1816,0.1826,0.1824,0.1834,0.1833,0.1865,0.1869,0.1831,0.1832,0.1832,0,0.1948,0.1951,0.1935,0.1933,0.1927,0.1924,0.192,0.1904,0.19,0.1888,0.189,0.1883,0.1877,0.187,0.1856,0.1849,0.1843,0.1854,0.1841,0.1846,0.1843,0.1844,0.1844,0.1857,0.1858,0.1858,0.1859,0,0.1979,0.1972,0.1967,0.1961,0.1957,0.1951,0.1943,0.1942,0.1924,0.1921,0.1916,0.1911,0.1902,0.1896,0.1886,0.1878,0.1865,0.1863,0.1864,0.187,0.1876,0.1873,0.1835,0.1862,0.1862,0.1862,0.1861,0.1861,0.2003,0.2004,0.1994,0.1989,0.1982,0.1976,0.1975,0.1964,0.196,0.1952,0.1942,0.1938,0.1926,0.1913,0.1906,0.1902,0.1895,0.1897,0.1898,0.1899,0.1901,0.1876,0.19,0.19,0.19,0.19,0.19,0,0.2033,0.2025,0.2021,0.2012,0.2009,0.1997,0.1988,0.1986,0.1983,0.1974,0.1969,0.1963,0.1957,0.1943,0.1935,0.1935,0.1929,0.1933,0.1934,0.1932,0.1908,0.1907,0.1939,0.1939,0.1939,0.1939,0.1939,0.1939,0.2048,0.205,0.2041,0.2039,0.2031,0.2027,0.2023,0.2017,0.201,0.2004,0.1999,0.199,0.1979,0.1971,0.1965,0.196,0.1959,0.1965,0.196,0.1937,0.1934,0.193,0.193,0.1965,0.1965,0.1984,0.1984,0.1984]}]]